This is the latest recevied weather packets stored in our database for station/object KC9DRE. If no packets are shown the sender has not sent any weather packets the latest 10 day(s).
| Time | Temp. | Humidity | Pressure | Rain* | Wind** | Luminosity | Snow |
|---|---|---|---|---|---|---|---|
| 1777583647 | 17.78° C | 37% | 1016.2 hPa | 0 mm | - | 515 W/m² | - |
| 1777583345 | 16.67° C | 41% | 1015.8 hPa | 0 mm | - | 520 W/m² | - |
| 1777583040 | 16.67° C | 40% | 1016.1 hPa | 0 mm | - | 297 W/m² | - |
| 1777582737 | 16.11° C | 39% | 1016.1 hPa | 0 mm | - | 538 W/m² | - |
| 1777582432 | 16.67° C | 41% | 1016.1 hPa | 0 mm | - | 145 W/m² | - |
| 1777582127 | 16.67° C | 41% | 1016.2 hPa | 0 mm | - | 566 W/m² | - |
| 1777581821 | 17.22° C | 39% | 1016.3 hPa | 0 mm | - | 282 W/m² | - |
| 1777581520 | 17.78° C | 39% | 1016.4 hPa | 0 mm | - | 656 W/m² | - |
| 1777581215 | 18.33° C | 38% | 1016.3 hPa | 0 mm | - | 646 W/m² | - |
| 1777580909 | 17.22° C | 40% | 1016.5 hPa | 0 mm | - | 629 W/m² | - |
| 1777580609 | 16.67° C | 41% | 1016.9 hPa | 0 mm | - | 647 W/m² | - |
| 1777580306 | 16.67° C | 37% | 1016.7 hPa | 0 mm | - | 669 W/m² | - |
| 1777580002 | 16.67° C | 39% | 1016.6 hPa | 0 mm | - | 694 W/m² | - |
| 1777579698 | 17.22° C | 40% | 1016.8 hPa | 0 mm | - | 675 W/m² | - |
| 1777579397 | 17.22° C | 42% | 1016.7 hPa | 0 mm | - | 744 W/m² | - |
| 1777579092 | 16.67° C | 40% | 1016.9 hPa | 0 mm | - | 766 W/m² | - |
| 1777578791 | 16.67° C | 40% | 1017 hPa | 0 mm | - | 729 W/m² | - |
| 1777578487 | 17.78° C | 39% | 1016.8 hPa | 0 mm | - | 725 W/m² | - |
| 1777578182 | 17.22° C | 39% | 1017 hPa | 0 mm | - | 733 W/m² | - |
| 1777577880 | 16.11° C | 42% | 1017 hPa | 0 mm | - | 753 W/m² | - |
| 1777577574 | 16.11° C | 41% | 1017 hPa | 0 mm | - | 787 W/m² | - |
| 1777577271 | 16.11° C | 43% | 1017.2 hPa | 0 mm | - | 787 W/m² | - |
| 1777576967 | 16.11° C | 41% | 1017.2 hPa | 0 mm | - | 789 W/m² | - |
| 1777576664 | 16.67° C | 39% | 1017.2 hPa | 0 mm | - | 779 W/m² | - |
| 1777576363 | 16.67° C | 38% | 1017.1 hPa | 0 mm | - | 795 W/m² | - |
* Rain latest hour (hover to see other rain measurements)
** Current wind speed in m/s (hover to see current wind gust speed)